sat.trackr.live / text

‹ back to catalog

STARLINK-34286

NORAD 65035 · 2025-161W

PAYLOAD ACTIVE UNKNOWN

§ Identity

Operator
Country
US
Launch date
2025-07-30
Launch site
AFWTR
Launch vehicle
Mass (kg)
RCS (m²)

Purposes: comms

External: N2YO · Heavens-Above · Gunter

§ Orbital elements

Epoch: 2026-05-24T17:06:39.076128Z

Period
93.85 min
Inclination
53.1588°
Eccentricity
0.0000822
Mean motion
15.34386724 rev/d
Perigee alt
462.2 km
Apogee alt
463.3 km
Semi-major
6,840.9 km
B*
4.3140e-4
RAAN
300.7786°
Arg perigee
87.7777°
Mean anomaly
272.3319°
Rev number
4,587

§ Raw data

STARLINK-342861 65035U 25161W   26144.71295227  .00014221  00000+0  43140-3 0  99902 65035  53.1588 300.7786 0000822  87.7777 272.3319 15.34386724 45871

JSON: /api/v1/satellites/65035 · /tle

For live sub-satellite position, see the globe view (requires WebGL).

§ Visibility from observer

Set your observer location to see the next 7 days of passes ≥ 10°. The values pass through the URL so the page stays shareable.

No JS? Fill the form by hand. The geolocation button needs JavaScript.